Find Starlink 31415

NORAD ID: 59419 Int'l Des: 2024-064 Owner: SPXS Country: US Constellation: starlink operational
LEOCIRCULAR

Live Position

Loading 3D Globe...

About Starlink 31415

Description loading...

Upcoming Passes

Passes for default location (London). Set your location on the main map for personalized predictions.

Altitude History

Loading altitude history...

Two-Line Element Set

1 59419U 24064X 26112.18849259 -.00000168 00000-0 34278-5 0 9997
2 59419 43.0012 170.9192 0001598 269.9498 90.1171 15.27563456115874
Epoch: Apr 22, 2026 • Age: 13 hours

Current Status

Altitude 485.9 km
Velocity 7.63 km/s
Sub-Earth Point 36.62°N, 179.35°W
Launch Date Apr 5, 2024
Age 2 years
Type internet

Technical Details

Classification Payload
Mass 730.00 kg
Dry Mass 700.00 kg
Total Mass 730.00 kg
Length 0.30 m
Diameter 4.10 m
Span 29.00 m
Shape Box + pan
Manufacturer SPXS
Bus Type Starlink V2M
Phase Status In Orbit
Owner/State SPXS/US

Most Searched